SPOT 3

Satellite information

Favourite Embed

Satellite Type and Status

PAYLOADIN ORBIT

Key statistics

Satellite SPOT 3 at a glance.

Uptime

11547

Days in orbit

Revolutions

≈ 14.2

Per day

Orbit

SSO

Sun Synchronous Orbit

Inclination

98.9

Latest

Satellite identification and parameters

Extended collection of information and parameters for SPOT 3.

Object identification

Identified? True

Debris? False

Object name: SPOT 3

International designator: 1993-061A

Object number (NORAD): 22823

Object ID (CCSDS): 22823

Country: FRANCE (FR)

Current information (Y/N): Y

RCS size: LARGE

Orbital parameters

Period: 101.413 minutes

Inclination: 98.9102 deg

SMA: 7203.705 km

Apoapsis: 837.124 km

Periapsis: 814.016 km

RAAN: 185.1175 deg

Eccentricy: 0.0016039

Argument of periapsis: 327.7538 deg

Mean anomaly: 32.2656 deg

Mean motion: 14.19936299 rev/day

Mean motion (dot): 0.00000136 rev/day2

B* drag term: 0.000085501 1/REarth

Two-line elements (TLE)

Creation date: May 8, 2025, 3:01 a.m.

Reference frame: TEME

Reference center: EARTH

Epoch: May 7, 2025, 5:40 p.m. UTC

TLE line 0: 0 SPOT 3

TLE line 1: 1 22823U 93061A 25127.73630348 .00000136 00000-0 85501-4 0 9990

TLE line 2: 2 22823 98.9102 185.1175 0016039 327.7538 32.2656 14.19936299637036

Live tracking on map

Real-time ground track for satellite SPOT 3.

In-orbit conjunctions

A list of the most updated potential collisions computed for object SPOT 3.

Target Orbit TCA Probability of collision Miss distance Type
COSMOS 1275 DEB LEO 2024-12-12 08:41:02 0.0001637362 237.0 (m) DEBRIS
FENGYUN 1C DEB SSO 2024-11-24 03:21:02 0.0001056115 425.0 (m) DEBRIS
FENGYUN 1C DEB SSO 2024-09-21 07:00:43 0.001129799 17.0 (m) DEBRIS
DMSP 5D-2 F13 DEB SSO 2024-06-30 20:13:13 0.0001982891 547.0 (m) DEBRIS
DMSP 5D-2 F11 DEB SSO 2024-06-21 03:27:17 0.0005350055 561.0 (m) DEBRIS

Associated space launch

The satellites SPOT 1, 2 and 3 (Satellite Probatoire de l'Observation de la Terre) were the first generation of SPOT earth observation satellites operated by Spot Image.

SPOT 3 was lifted into orbit during the mission ‘Ariane 40 | SPOT 3’, on board a Ariane 40 space rocket.

The launch took place on Sept. 26, 1993, 1:45 a.m. from Ariane Launch Area 2.

For more information about the launch, click the button.

Launch to space Ariane 40 | SPOT 3
Ariane 40 | SPOT 3

Agency: N/A

Status: Launch Successful

Launch date: Sept. 26, 1993, 1:45 a.m. UTC

Rocket: Ariane 40

Launch pad: Ariane Launch Area 2

Location: Guiana Space Centre, French Guiana

...

Latest news about this satellite

There are no fresh news available about this satellite. Check back as we update our databases every day.


Newsletter sign-up

Weekly statistics, charts and insights to help you stay on top of the space industry.